Regional Weather Roundup
Issued by NWS

Home | Current Version | Previous Version | Text Only | Print | Product List | Glossary On
Versions: 1 2 3 4 5 6 7 8 9 10 11 12 13 14 15 16 17 18 19 20 21 22 23 24 25 26 27 28 29 30 31 32 33 34 35 36 37 38 39 40 41 42 43 44 45 46 47 48 49 50
000
ASUS44 KFWD 231115
RWRTX
NORTH TEXAS HOURLY WEATHER ROUNDUP
NATIONAL WEATHER SERVICE FORT WORTH TX
600 AM CDT TUE SEP 23 2014

NOTE: "FAIR" INDICATES FEW OR NO CLOUDS BELOW 12,000 FEET WITH NO
SIGNIFICANT WEATHER AND/OR OBSTRUCTIONS TO VISIBILITY.

TXZ118-119-231200-
DALLAS/FORT WORTH METROPLEX

CITY           SKY/WX    TMP DP  RH WIND       PRES   REMARKS
DFW AIRPORT    PTCLDY    63  53  70 E5        30.17R
DALLAS LOVE    PTCLDY    65  53  65 E7        30.17R
FTW MEACHAM    CLEAR     64  53  67 E6        30.17R
DAL-EXECUTIVE  CLEAR     63  53  70 E6        30.17R
FTW-ALLIANCE   PTCLDY    58  52  80 CALM      30.17R
FTW-NAS-JRB    PTCLDY    68  51  54 CALM      30.22R
FTW-SPINKS     CLEAR     58  52  78 CALM      30.19R
ARLINGTON      CLEAR     66  53  63 E5        30.17R
GRAND PRAIRIE  CLEAR     65  51  60 E7        30.18S
ADDISON        CLEAR     64  52  63 E8        30.18F
LANCASTER      CLEAR     58  51  76 CALM      30.18R
$$

TXZ091>094-102>105-117-120-121-131>134-231200-
NORTH CENTRAL TEXAS

CITY           SKY/WX    TMP DP  RH WIND       PRES   REMARKS
SHRMAN/DENISON CLEAR     55  52  90 CALM      30.21R
GAINESVILLE    CLEAR     56  51  83 NE5       30.20S
BOWIE          CLEAR     57  53  88 CALM      30.19R
BRIDGEPORT     CLEAR     54  54  99 CALM      30.20R
DECATUR        CLEAR     58  51  79 E5        30.19R
DENTON         CLEAR     57  52  83 NE3       30.18R
MCKINNEY       CLEAR     53  51  93 N3        30.19R
GREENVILLE     CLEAR     57  52  82 CALM      30.19R
ROCKWALL       CLEAR     60  55  82 E6        30.17R
TERRELL        CLEAR     63  54  72 E5        30.17S
WAXAHACHIE     CLEAR     58  51  75 NE3       30.18S
CLEBURNE       CLEAR     61  55  82 E6        30.18R
GRANBURY       CLEAR     62  53  74 CALM      30.19R
$$

TXZ083>090-098>101-113>116-127>130-139>142-154-155-231200-
WESTERN NORTH TEXAS

CITY           SKY/WX    TMP DP  RH WIND       PRES   REMARKS
WICHITA FALLS  CLEAR     60  53  77 E7        30.17R
WF-KICKAPOO    CLEAR     61  53  74 E7        30.18S
VERNON         CLEAR     62  54  76 CALM      30.18R
ABILENE        MOCLDY    67  53  61 CALM      30.17R
ABILENE-DYESS  MOCLDY    68  49  51 SE6       30.17R
BRECKENRIDGE   CLEAR     67  50  54 SE5       30.17R HAZE
GRAHAM         CLEAR     64  51  62 E3        30.16S
MINERAL WELLS  CLEAR     61  51  70 CALM      30.16R
STEPHENVILLE   CLEAR     62  51  66 CALM      30.20R
COMANCHE       PTCLDY    61  53  75 SE3       30.17R
BROWNWOOD      CLOUDY    64  55  72 E3        30.17R
COLEMAN        PTCLDY    65  56  71 CALM      30.18R
BRADY          CLEAR     66  55  68 E5        30.16R
$$

TXZ143>147-156>162-174-175-231200-
CENTRAL TEXAS

CITY           SKY/WX    TMP DP  RH WIND       PRES   REMARKS
WACO           CLEAR     59  54  83 N3        30.15R
WACO-MCGREGOR  CLEAR     64  48  55 E3        30.16R
HILLSBORO      CLEAR     63  52  67 E10       30.16R
CORSICANA      CLEAR     63  54  72 E8        30.17R
MEXIA          PTCLDY    59  54  81 NE3       30.14S
HEARNE         CLEAR     64  55  72 CALM      30.14R
CAMERON        CLEAR     63  56  79 CALM      30.14R
TEMPLE         CLEAR     63  50  63 E6        30.14S
KILLEEN        PTCLDY    66  54  63 E5        30.14S
KILLEEN-SKYLRK CLEAR     64  52  63 E3        30.13S
FORT HOOD      CLEAR     67  55  65 NE3       30.15R
GATESVILLE     CLEAR     63  54  72 CALM      30.17S
HAMILTON       CLEAR     62  54  73 SE3       30.17S
LAMPASAS       PTCLDY    63  56  78 NE6       30.14S
$$

TXZ095>097-106>112-122>126-135>138-148>153-164>167-231200-
EAST TEXAS

CITY           SKY/WX    TMP DP  RH WIND       PRES   REMARKS
PARIS          CLEAR     57  48  72 E6        30.21S
SULPHUR SPRNGS CLEAR     55  53  94 E5        30.21S
MOUNT PLEASANT PTCLDY    57  54  89 CALM      30.20S
GILMER         PTCLDY    61  54  77 CALM      30.20R
MINEOLA        CLEAR     54  54 100 CALM      30.19S
TYLER          CLEAR     60  53  77 E3        30.17R
LONGVIEW       CLEAR     57  53  86 CALM      30.17R
MARSHALL       CLEAR     59  53  82 NE3       30.19S
ATHENS         CLEAR     59  54  82 CALM      30.16R
PALESTINE      CLEAR     64  54  71 E12       30.16S
JACKSONVILLE   CLEAR     60  54  78 NE5       30.18S
HENDERSON      CLEAR     54  53  98 CALM      30.18R
NACOGDOCHES    CLEAR     55  52  88 NE3       30.15S
LUFKIN         CLEAR     62  54  74 N6        30.14R
$$

SUPPLEMENTAL OBSERVATIONS (CENTRAL)

CITY           SKY/WX    TMP DP  RH WIND       PRES   REMARKS
LAKE TEXOMA      N/A     57  52  82 E2          N/A
CADDO GRASSLND   N/A     55  52  88 E1          N/A
PAT MAYSE LAKE   N/A     57  54  88 NE3         N/A
GREENVILLE       N/A     57  52  82 E5          N/A
CEDAR HILL       N/A     63  52  67 E2          N/A
ATHENS           N/A     61  54  77 E2          N/A
LAKE LIMESTONE   N/A     61  54  77 NE3         N/A
MCGREGOR         N/A     61  52  72 NE3         N/A
$$

SUPPLEMENTAL OBSERVATIONS (WEST)

CITY           SKY/WX    TMP DP  RH WIND       PRES   REMARKS
LBJ GRASSLAND    N/A     61  52  72 E5          N/A
COMANCHE         N/A     61  50  67 SE3         N/A
HAMBY            N/A     64  52  63 E5          N/A
IVIE RESERVOIR   N/A     66  57  72 E8          N/A
COLORADO BEND    N/A     64  52  63 E3          N/A
$$

SUPPLEMENTAL OBSERVATIONS (EAST)

CITY           SKY/WX    TMP DP  RH WIND       PRES   REMARKS
CADDO LAKE       N/A     54  52  94 CALM        N/A
HENDERSON        N/A     55  50  82 N1          N/A
LUFKIN           N/A     59  54  82 MISG        N/A
N SABINE NF      N/A     59  54  82 MISG        N/A
$$

SUPPLEMENTAL OBSERVATIONS ARE A COLLECTION OF AUTOMATED INSTRUMENTS
THAT ARE MAINTAINED BY A VARIETY OF FEDERAL AND STATE AGENCIES.
CERTAIN ELEMENTS...SUCH AS HUMIDITY VALUES AND SUSTAINED WIND
SPEEDS...MAY BE APPROXIMATED.



USA.gov is the U.S. government's official web portal to all federal, state and local government web resources and services.